When you browse on this site, cookies collect data to enhance your experience and personalize the content and advertising you see.
Visit our Privacy Policy to learn more. By continuing to use the site, you agree to this use of cookies and data.
  • In Österreich
  • Länderverzeichnis
  • Für 7 Tage
  • Wassertemperatur
  • Satellitenkarten
  • Wetterkarte
  • News
  • Widgets
  • user-avatar
    Anmelden

    Stündliche Wetter Djelfa

    Heute, 19 Januar, Samstag

    Zeit Temperatur Niederschläge Wind Luftdruck Luftfeuchtigkeit
    00:00 +1°C° 0 mm 4 m/S 662 mmHg 89%
    01:00 +1°C° 0 mm 4 m/S 662 mmHg 90%
    02:00 0°C° 0 mm 4 m/S 662 mmHg 92%
    03:00 0°C° 0 mm 4 m/S 662 mmHg 93%
    04:00 0°C° 0 mm 4 m/S 662 mmHg 93%
    05:00 0°C° 0 mm 4 m/S 662 mmHg 92%
    06:00 -1°C° 0 mm 5 m/S 661 mmHg 93%
    07:00 -1°C° 0 mm 6 m/S 662 mmHg 88%
    08:00 0°C° 0 mm 7 m/S 662 mmHg 82%
    09:00 +1°C° 0 mm 8 m/S 662 mmHg 77%
    10:00 +2°C° 0 mm 8 m/S 662 mmHg 73%
    11:00 +4°C° 0 mm 8 m/S 662 mmHg 68%
    12:00 +5°C° 0 mm 9 m/S 662 mmHg 63%
    13:00 +5°C° 0 mm 9 m/S 662 mmHg 64%
    14:00 +5°C° 0 mm 9 m/S 662 mmHg 64%
    15:00 +5°C° 0 mm 9 m/S 661 mmHg 64%
    16:00 +4°C° 0 mm 8 m/S 661 mmHg 69%
    17:00 +3°C° 0 mm 7 m/S 661 mmHg 74%
    18:00 +3°C° 0 mm 6 m/S 661 mmHg 80%
    19:00 +2°C° 0 mm 5 m/S 661 mmHg 83%
    20:00 +2°C° 0 mm 5 m/S 661 mmHg 86%
    21:00 +1°C° 0 mm 5 m/S 661 mmHg 88%
    22:00 +1°C° 0 mm 5 m/S 661 mmHg 89%
    23:00 +1°C° 0 mm 5 m/S 661 mmHg 89%

    Morgen, 20 Januar, Sonntag

    Zeit Temperatur Niederschläge Wind Luftdruck Luftfeuchtigkeit
    00:00 +1°C° 0 mm 4 m/S 661 mmHg 89%
    01:00 +1°C° 0 mm 4 m/S 661 mmHg 91%
    02:00 +1°C° 0 mm 4 m/S 661 mmHg 92%
    03:00 +1°C° 0 mm 5 m/S 660 mmHg 93%
    04:00 +1°C° 0 mm 4 m/S 660 mmHg 94%
    05:00 +1°C° 0 mm 4 m/S 660 mmHg 94%
    06:00 +2°C° 0 mm 3 m/S 660 mmHg 94%
    07:00 +3°C° 0.2 mm 4 m/S 660 mmHg 91%
    08:00 +3°C° 0.2 mm 5 m/S 660 mmHg 88%
    09:00 +4°C° 0.2 mm 6 m/S 660 mmHg 86%
    10:00 +4°C° 0.2 mm 7 m/S 660 mmHg 83%
    11:00 +5°C° 0.2 mm 9 m/S 660 mmHg 81%
    12:00 +5°C° 0.2 mm 10 m/S 660 mmHg 78%
    13:00 +5°C° 0.1 mm 10 m/S 659 mmHg 75%
    14:00 +6°C° 0.1 mm 9 m/S 659 mmHg 73%
    15:00 +6°C° 0.1 mm 9 m/S 658 mmHg 70%
    16:00 +5°C° 0.5 mm 8 m/S 658 mmHg 74%
    17:00 +5°C° 0.5 mm 8 m/S 658 mmHg 79%
    18:00 +5°C° 0.5 mm 8 m/S 658 mmHg 83%
    19:00 +4°C° 0 mm 8 m/S 658 mmHg 82%
    20:00 +2°C° 0 mm 9 m/S 658 mmHg 82%
    21:00 +2°C° 0 mm 9 m/S 658 mmHg 81%
    22:00 +2°C° 0.2 mm 10 m/S 658 mmHg 83%
    23:00 +2°C° 0.2 mm 10 m/S 658 mmHg 84%

    übermorgen, 21 Januar, Montag

    Zeit Temperatur Niederschläge Wind Luftdruck Luftfeuchtigkeit
    00:00 +2°C° 0.2 mm 11 m/S 658 mmHg 86%
    01:00 +2°C° 0.1 mm 11 m/S 658 mmHg 88%
    02:00 +2°C° 0.1 mm 10 m/S 658 mmHg 91%
    03:00 +2°C° 0.1 mm 10 m/S 658 mmHg 93%
    04:00 +2°C° 0.2 mm 10 m/S 658 mmHg 92%
    05:00 +1°C° 0.2 mm 10 m/S 659 mmHg 90%
    06:00 +1°C° 0.2 mm 10 m/S 659 mmHg 89%
    07:00 +1°C° 0 mm 10 m/S 659 mmHg 84%
    08:00 +1°C° 0 mm 10 m/S 660 mmHg 79%
    09:00 +1°C° 0 mm 11 m/S 660 mmHg 74%
    10:00 +2°C° 0 mm 11 m/S 660 mmHg 70%
    11:00 +3°C° 0 mm 11 m/S 660 mmHg 66%
    12:00 +3°C° 0 mm 11 m/S 661 mmHg 62%
    13:00 +3°C° 0.1 mm 11 m/S 661 mmHg 61%
    14:00 +3°C° 0.1 mm 10 m/S 661 mmHg 60%
    15:00 +3°C° 0.1 mm 10 m/S 661 mmHg 59%
    16:00 +3°C° 0.1 mm 9 m/S 661 mmHg 65%
    17:00 +2°C° 0.1 mm 8 m/S 661 mmHg 71%
    18:00 +2°C° 0.1 mm 7 m/S 661 mmHg 78%
    19:00 0°C° 0 mm 7 m/S 661 mmHg 81%
    20:00 0°C° 0 mm 7 m/S 662 mmHg 84%
    21:00 -1°C° 0 mm 7 m/S 662 mmHg 87%
    22:00 -1°C° 0 mm 6 m/S 662 mmHg 89%
    23:00 -1°C° 0 mm 6 m/S 662 mmHg 90%

    22 Januar, Dienstag

    Zeit Temperatur Niederschläge Wind Luftdruck Luftfeuchtigkeit
    00:00 -2°C° 0 mm 6 m/S 662 mmHg 92%
    01:00 -2°C° 0 mm 7 m/S 662 mmHg 92%
    02:00 -2°C° 0 mm 7 m/S 662 mmHg 93%
    03:00 -2°C° 0 mm 7 m/S 661 mmHg 93%
    04:00 -2°C° 0 mm 7 m/S 661 mmHg 92%
    05:00 -2°C° 0 mm 8 m/S 661 mmHg 90%
    06:00 -2°C° 0 mm 8 m/S 661 mmHg 89%
    07:00 -3°C° 0 mm 9 m/S 661 mmHg 85%
    08:00 -1°C° 0 mm 9 m/S 662 mmHg 81%
    09:00 -2°C° 0 mm 10 m/S 662 mmHg 77%
    10:00 0°C° 0 mm 10 m/S 662 mmHg 69%
    11:00 +1°C° 0 mm 10 m/S 661 mmHg 61%
    12:00 +1°C° 0 mm 11 m/S 661 mmHg 53%
    13:00 +1°C° 0 mm 10 m/S 661 mmHg 53%
    14:00 +1°C° 0 mm 10 m/S 660 mmHg 53%
    15:00 +1°C° 0 mm 10 m/S 659 mmHg 53%
    16:00 +1°C° 0 mm 9 m/S 659 mmHg 56%
    17:00 0°C° 0 mm 7 m/S 659 mmHg 58%
    18:00 +1°C° 0 mm 6 m/S 659 mmHg 61%
    19:00 0°C° 0.1 mm 7 m/S 659 mmHg 66%
    20:00 0°C° 0.1 mm 9 m/S 659 mmHg 72%
    21:00 0°C° 0.1 mm 10 m/S 659 mmHg 78%
    22:00 0°C° 0.1 mm 10 m/S 658 mmHg 80%
    23:00 0°C° 0.1 mm 10 m/S 657 mmHg 82%

    23 Januar, Mittwoch

    Zeit Temperatur Niederschläge Wind Luftdruck Luftfeuchtigkeit
    00:00 0°C° 0.1 mm 10 m/S 657 mmHg 83%
    01:00 0°C° 0.1 mm 9 m/S 656 mmHg 85%
    02:00 -1°C° 0.1 mm 9 m/S 655 mmHg 86%
    03:00 -1°C° 0.1 mm 9 m/S 655 mmHg 88%
    04:00 -2°C° 0.1 mm 10 m/S 655 mmHg 86%
    05:00 -2°C° 0.1 mm 11 m/S 654 mmHg 85%
    06:00 -2°C° 0.1 mm 12 m/S 654 mmHg 83%
    07:00 -2°C° 0.1 mm 13 m/S 654 mmHg 79%
    08:00 -2°C° 0.1 mm 14 m/S 655 mmHg 76%
    09:00 -2°C° 0.1 mm 14 m/S 655 mmHg 73%
    10:00 -1°C° 0.1 mm 15 m/S 655 mmHg 66%
    11:00 -2°C° 0.1 mm 16 m/S 655 mmHg 60%
    12:00 0°C° 0.1 mm 17 m/S 655 mmHg 54%
    13:00 0°C° 0 mm 16 m/S 654 mmHg 52%
    14:00 +1°C° 0 mm 15 m/S 653 mmHg 50%
    15:00 +1°C° 0 mm 14 m/S 653 mmHg 47%
    16:00 +1°C° 0 mm 15 m/S 652 mmHg 54%
    17:00 0°C° 0 mm 16 m/S 652 mmHg 60%
    18:00 0°C° 0 mm 17 m/S 652 mmHg 67%
    19:00 0°C° 0.5 mm 17 m/S 652 mmHg 72%
    20:00 -2°C° 0.5 mm 17 m/S 652 mmHg 77%
    21:00 -2°C° 0.5 mm 18 m/S 652 mmHg 82%
    22:00 -3°C° 1.3 mm 17 m/S 652 mmHg 82%
    23:00 -3°C° 1.3 mm 16 m/S 652 mmHg 83%

    24 Januar, Donnerstag

    Zeit Temperatur Niederschläge Wind Luftdruck Luftfeuchtigkeit
    00:00 -4°C° 1.3 mm 15 m/S 652 mmHg 84%
    01:00 -5°C° 0.2 mm 15 m/S 652 mmHg 81%
    02:00 -5°C° 0.2 mm 15 m/S 652 mmHg 79%
    03:00 -7°C° 0.2 mm 15 m/S 652 mmHg 76%
    04:00 -7°C° 0 mm 13 m/S 652 mmHg 77%
    05:00 -7°C° 0 mm 12 m/S 653 mmHg 78%
    06:00 -8°C° 0 mm 10 m/S 653 mmHg 79%
    07:00 -8°C° 0 mm 11 m/S 653 mmHg 75%
    08:00 -7°C° 0 mm 11 m/S 653 mmHg 71%
    09:00 -7°C° 0 mm 11 m/S 654 mmHg 67%
    10:00 -6°C° 0 mm 12 m/S 654 mmHg 65%
    11:00 -5°C° 0 mm 12 m/S 654 mmHg 63%
    12:00 -4°C° 0 mm 13 m/S 654 mmHg 61%
    13:00 -4°C° 0 mm 13 m/S 654 mmHg 61%
    14:00 -4°C° 0 mm 13 m/S 654 mmHg 61%
    15:00 -4°C° 0 mm 13 m/S 654 mmHg 61%
    16:00 -4°C° 0 mm 11 m/S 654 mmHg 64%
    17:00 -4°C° 0 mm 9 m/S 654 mmHg 67%
    18:00 -4°C° 0 mm 7 m/S 654 mmHg 70%
    19:00 -4°C° 0 mm 6 m/S 654 mmHg 75%
    20:00 -4°C° 0 mm 6 m/S 654 mmHg 79%
    21:00 -4°C° 0 mm 6 m/S 654 mmHg 83%
    22:00 -4°C° 0.2 mm 5 m/S 654 mmHg 86%
    23:00 -3°C° 0.2 mm 4 m/S 654 mmHg 90%
    Mehr zeigen